"Time","Value","Approval","myLocation"
"2023-04-21 00:00",9.225,"Approved","OW045"
"2023-04-21 01:00",9.225,"Approved","OW045"
"2023-04-21 02:00",9.226,"Approved","OW045"
"2023-04-21 03:00",9.226,"Approved","OW045"
"2023-04-21 04:00",9.224,"Approved","OW045"
"2023-04-21 05:00",9.227,"Approved","OW045"
"2023-04-21 06:00",9.224,"Approved","OW045"
"2023-04-21 07:00",9.224,"Approved","OW045"
"2023-04-21 08:00",9.222,"Approved","OW045"
"2023-04-21 09:00",9.222,"Approved","OW045"
"2023-04-21 10:00",9.221,"Approved","OW045"
"2023-04-21 11:00",9.221,"Approved","OW045"
"2023-04-21 12:00",9.219,"Approved","OW045"
"2023-04-21 13:00",9.219,"Approved","OW045"
"2023-04-21 14:00",9.218,"Approved","OW045"
"2023-04-21 15:00",9.219,"Approved","OW045"
"2023-04-21 16:00",9.216,"Approved","OW045"
"2023-04-21 17:00",9.218,"Approved","OW045"
"2023-04-21 18:00",9.217,"Approved","OW045"
"2023-04-21 19:00",9.217,"Approved","OW045"
"2023-04-21 20:00",9.217,"Approved","OW045"
"2023-04-21 21:00",9.215,"Approved","OW045"
"2023-04-21 22:00",9.214,"Approved","OW045"
"2023-04-21 23:00",9.214,"Approved","OW045"
"2023-04-22 00:00",9.215,"Approved","OW045"
"2023-04-22 01:00",9.215,"Approved","OW045"
"2023-04-22 02:00",9.212,"Approved","OW045"
"2023-04-22 03:00",9.214,"Approved","OW045"
"2023-04-22 04:00",9.214,"Approved","OW045"
"2023-04-22 05:00",9.212,"Approved","OW045"
"2023-04-22 06:00",9.213,"Approved","OW045"
"2023-04-22 07:00",9.211,"Approved","OW045"
"2023-04-22 08:00",9.21,"Approved","OW045"
"2023-04-22 09:00",9.211,"Approved","OW045"
"2023-04-22 10:00",9.21,"Approved","OW045"
"2023-04-22 11:00",9.207,"Approved","OW045"
"2023-04-22 12:00",9.205,"Approved","OW045"
"2023-04-22 13:00",9.204,"Approved","OW045"
"2023-04-22 14:00",9.204,"Approved","OW045"
"2023-04-22 15:00",9.202,"Approved","OW045"
"2023-04-22 16:00",9.201,"Approved","OW045"
"2023-04-22 17:00",9.204,"Approved","OW045"
"2023-04-22 18:00",9.204,"Approved","OW045"
"2023-04-22 19:00",9.203,"Approved","OW045"
"2023-04-22 20:00",9.203,"Approved","OW045"
"2023-04-22 21:00",9.202,"Approved","OW045"
"2023-04-22 22:00",9.203,"Approved","OW045"
"2023-04-22 23:00",9.201,"Approved","OW045"
"2023-04-23 00:00",9.199,"Approved","OW045"
"2023-04-23 01:00",9.199,"Approved","OW045"
"2023-04-23 02:00",9.199,"Approved","OW045"
"2023-04-23 03:00",9.2,"Approved","OW045"
"2023-04-23 04:00",9.197,"Approved","OW045"
"2023-04-23 05:00",9.2,"Approved","OW045"
"2023-04-23 06:00",9.2,"Approved","OW045"
"2023-04-23 07:00",9.198,"Approved","OW045"
"2023-04-23 08:00",9.2,"Approved","OW045"
"2023-04-23 09:00",9.199,"Approved","OW045"
"2023-04-23 10:00",9.199,"Approved","OW045"
"2023-04-23 11:00",9.199,"Approved","OW045"
"2023-04-23 12:00",9.198,"Approved","OW045"
"2023-04-23 13:00",9.199,"Approved","OW045"
"2023-04-23 14:00",9.195,"Approved","OW045"
"2023-04-23 15:00",9.197,"Approved","OW045"
"2023-04-23 16:00",9.197,"Approved","OW045"
"2023-04-23 17:00",9.195,"Approved","OW045"
"2023-04-23 18:00",9.195,"Approved","OW045"
"2023-04-23 19:00",9.195,"Approved","OW045"
"2023-04-23 20:00",9.198,"Approved","OW045"
"2023-04-23 21:00",9.195,"Approved","OW045"
"2023-04-23 22:00",9.195,"Approved","OW045"
"2023-04-23 23:00",9.196,"Approved","OW045"
"2023-04-24 00:00",9.194,"Approved","OW045"
"2023-04-24 01:00",9.193,"Approved","OW045"
"2023-04-24 02:00",9.194,"Approved","OW045"
"2023-04-24 03:00",9.194,"Approved","OW045"
"2023-04-24 04:00",9.192,"Approved","OW045"
"2023-04-24 05:00",9.193,"Approved","OW045"
"2023-04-24 06:00",9.193,"Approved","OW045"
"2023-04-24 07:00",9.194,"Approved","OW045"
"2023-04-24 08:00",9.194,"Approved","OW045"
"2023-04-24 09:00",9.195,"Approved","OW045"
"2023-04-24 10:00",9.195,"Approved","OW045"
"2023-04-24 11:00",9.194,"Approved","OW045"
"2023-04-24 12:00",9.195,"Approved","OW045"
"2023-04-24 13:00",9.191,"Approved","OW045"
"2023-04-24 14:00",9.191,"Approved","OW045"
"2023-04-24 15:00",9.193,"Approved","OW045"
"2023-04-24 16:00",9.192,"Approved","OW045"
"2023-04-24 17:00",9.19,"Approved","OW045"
"2023-04-24 18:00",9.192,"Approved","OW045"
"2023-04-24 19:00",9.189,"Approved","OW045"
"2023-04-24 20:00",9.193,"Approved","OW045"
"2023-04-24 21:00",9.194,"Approved","OW045"
"2023-04-24 22:00",9.195,"Approved","OW045"
"2023-04-24 23:00",9.193,"Approved","OW045"
"2023-04-25 00:00",9.194,"Approved","OW045"
"2023-04-25 01:00",9.193,"Approved","OW045"
"2023-04-25 02:00",9.19,"Approved","OW045"
"2023-04-25 03:00",9.19,"Approved","OW045"
"2023-04-25 04:00",9.189,"Approved","OW045"
"2023-04-25 05:00",9.189,"Approved","OW045"
"2023-04-25 06:00",9.189,"Approved","OW045"
"2023-04-25 07:00",9.184,"Approved","OW045"
"2023-04-25 08:00",9.188,"Approved","OW045"
"2023-04-25 09:00",9.186,"Approved","OW045"
"2023-04-25 10:00",9.186,"Approved","OW045"
"2023-04-25 11:00",9.189,"Approved","OW045"
"2023-04-25 12:00",9.187,"Approved","OW045"
"2023-04-25 13:00",9.187,"Approved","OW045"
"2023-04-25 14:00",9.186,"Approved","OW045"
"2023-04-25 15:00",9.184,"Approved","OW045"
"2023-04-25 16:00",9.185,"Approved","OW045"
"2023-04-25 17:00",9.184,"Approved","OW045"
"2023-04-25 18:00",9.184,"Approved","OW045"
"2023-04-25 19:00",9.183,"Approved","OW045"
"2023-04-25 20:00",9.187,"Approved","OW045"
"2023-04-25 21:00",9.187,"Approved","OW045"
"2023-04-25 22:00",9.187,"Approved","OW045"
"2023-04-25 23:00",9.188,"Approved","OW045"
"2023-04-26 00:00",9.183,"Approved","OW045"
"2023-04-26 01:00",9.186,"Approved","OW045"
"2023-04-26 02:00",9.183,"Approved","OW045"
"2023-04-26 03:00",9.185,"Approved","OW045"
"2023-04-26 04:00",9.185,"Approved","OW045"
"2023-04-26 05:00",9.184,"Approved","OW045"
"2023-04-26 06:00",9.181,"Approved","OW045"
"2023-04-26 07:00",9.183,"Approved","OW045"
"2023-04-26 08:00",9.182,"Approved","OW045"
"2023-04-26 09:00",9.18,"Approved","OW045"
"2023-04-26 10:00",9.179,"Approved","OW045"
"2023-04-26 11:00",9.18,"Approved","OW045"
"2023-04-26 12:00",9.179,"Approved","OW045"
"2023-04-26 13:00",9.176,"Approved","OW045"
"2023-04-26 14:00",9.175,"Approved","OW045"
"2023-04-26 15:00",9.176,"Approved","OW045"
"2023-04-26 16:00",9.177,"Approved","OW045"
"2023-04-26 17:00",9.176,"Approved","OW045"
"2023-04-26 18:00",9.176,"Approved","OW045"
"2023-04-26 19:00",9.178,"Approved","OW045"
"2023-04-26 20:00",9.179,"Approved","OW045"
"2023-04-26 21:00",9.181,"Approved","OW045"
"2023-04-26 22:00",9.18,"Approved","OW045"
"2023-04-26 23:00",9.182,"Approved","OW045"
"2023-04-27 00:00",9.18,"Approved","OW045"
"2023-04-27 01:00",9.182,"Approved","OW045"
"2023-04-27 02:00",9.183,"Approved","OW045"
"2023-04-27 03:00",9.179,"Approved","OW045"
"2023-04-27 04:00",9.177,"Approved","OW045"
"2023-04-27 05:00",9.18,"Approved","OW045"
"2023-04-27 06:00",9.179,"Approved","OW045"
"2023-04-27 07:00",9.18,"Approved","OW045"
"2023-04-27 08:00",9.177,"Approved","OW045"
"2023-04-27 09:00",9.178,"Approved","OW045"
"2023-04-27 10:00",9.176,"Approved","OW045"
"2023-04-27 11:00",9.177,"Approved","OW045"
"2023-04-27 12:00",9.174,"Approved","OW045"
"2023-04-27 13:00",9.176,"Approved","OW045"
"2023-04-27 14:00",9.173,"Approved","OW045"
"2023-04-27 15:00",9.173,"Approved","OW045"
"2023-04-27 16:00",9.172,"Approved","OW045"
"2023-04-27 17:00",9.172,"Approved","OW045"
"2023-04-27 18:00",9.171,"Approved","OW045"
"2023-04-27 19:00",9.172,"Approved","OW045"
"2023-04-27 20:00",9.172,"Approved","OW045"
"2023-04-27 21:00",9.175,"Approved","OW045"
"2023-04-27 22:00",9.173,"Approved","OW045"
"2023-04-27 23:00",9.175,"Approved","OW045"
"2023-04-28 00:00",9.173,"Approved","OW045"
"2023-04-28 01:00",9.17,"Approved","OW045"
"2023-04-28 02:00",9.172,"Approved","OW045"
"2023-04-28 03:00",9.172,"Approved","OW045"
"2023-04-28 04:00",9.17,"Approved","OW045"
"2023-04-28 05:00",9.17,"Approved","OW045"
"2023-04-28 06:00",9.17,"Approved","OW045"
"2023-04-28 07:00",9.17,"Approved","OW045"
"2023-04-28 08:00",9.169,"Approved","OW045"
"2023-04-28 09:00",9.167,"Approved","OW045"
"2023-04-28 10:00",9.17,"Approved","OW045"
"2023-04-28 11:00",9.169,"Approved","OW045"
"2023-04-28 12:00",9.165,"Approved","OW045"
"2023-04-28 13:00",9.166,"Approved","OW045"
"2023-04-28 14:00",9.167,"Approved","OW045"
"2023-04-28 15:00",9.164,"Approved","OW045"
"2023-04-28 16:00",9.164,"Approved","OW045"
"2023-04-28 17:00",9.164,"Approved","OW045"
"2023-04-28 18:00",9.164,"Approved","OW045"
"2023-04-28 19:00",9.166,"Approved","OW045"
"2023-04-28 20:00",9.164,"Approved","OW045"
"2023-04-28 21:00",9.165,"Approved","OW045"
"2023-04-28 22:00",9.165,"Approved","OW045"
"2023-04-28 23:00",9.165,"Approved","OW045"
"2023-04-29 00:00",9.165,"Approved","OW045"
"2023-04-29 01:00",9.165,"Approved","OW045"
"2023-04-29 02:00",9.165,"Approved","OW045"
"2023-04-29 03:00",9.166,"Approved","OW045"
"2023-04-29 04:00",9.165,"Approved","OW045"
"2023-04-29 05:00",9.164,"Approved","OW045"
"2023-04-29 06:00",9.166,"Approved","OW045"
"2023-04-29 07:00",9.163,"Approved","OW045"
"2023-04-29 08:00",9.163,"Approved","OW045"
"2023-04-29 09:00",9.16,"Approved","OW045"
"2023-04-29 10:00",9.161,"Approved","OW045"
"2023-04-29 11:00",9.16,"Approved","OW045"
"2023-04-29 12:00",9.158,"Approved","OW045"
"2023-04-29 13:00",9.158,"Approved","OW045"
"2023-04-29 14:00",9.158,"Approved","OW045"
"2023-04-29 15:00",9.155,"Approved","OW045"
"2023-04-29 16:00",9.156,"Approved","OW045"
"2023-04-29 17:00",9.155,"Approved","OW045"
"2023-04-29 18:00",9.157,"Approved","OW045"
"2023-04-29 19:00",9.156,"Approved","OW045"
"2023-04-29 20:00",9.157,"Approved","OW045"
"2023-04-29 21:00",9.159,"Approved","OW045"
"2023-04-29 22:00",9.16,"Approved","OW045"
"2023-04-29 23:00",9.158,"Approved","OW045"
"2023-04-30 00:00",9.158,"Approved","OW045"
"2023-04-30 01:00",9.155,"Approved","OW045"
"2023-04-30 02:00",9.156,"Approved","OW045"
"2023-04-30 03:00",9.156,"Approved","OW045"
"2023-04-30 04:00",9.155,"Approved","OW045"
"2023-04-30 05:00",9.153,"Approved","OW045"
"2023-04-30 06:00",9.155,"Approved","OW045"
"2023-04-30 07:00",9.154,"Approved","OW045"
"2023-04-30 08:00",9.153,"Approved","OW045"
"2023-04-30 09:00",9.152,"Approved","OW045"
"2023-04-30 10:00",9.151,"Approved","OW045"
"2023-04-30 11:00",9.152,"Approved","OW045"
"2023-04-30 12:00",9.152,"Approved","OW045"
"2023-04-30 13:00",9.15,"Approved","OW045"
"2023-04-30 14:00",9.148,"Approved","OW045"
"2023-04-30 15:00",9.149,"Approved","OW045"
"2023-04-30 16:00",9.146,"Approved","OW045"
"2023-04-30 17:00",9.148,"Approved","OW045"
"2023-04-30 18:00",9.148,"Approved","OW045"
"2023-04-30 19:00",9.148,"Approved","OW045"
"2023-04-30 20:00",9.15,"Approved","OW045"
"2023-04-30 21:00",9.151,"Approved","OW045"
"2023-04-30 22:00",9.152,"Approved","OW045"
"2023-04-30 23:00",9.151,"Approved","OW045"
"2023-05-01 00:00",9.149,"Approved","OW045"
"2023-05-01 01:00",9.149,"Approved","OW045"
"2023-05-01 02:00",9.15,"Approved","OW045"
"2023-05-01 03:00",9.148,"Approved","OW045"
"2023-05-01 04:00",9.15,"Approved","OW045"
"2023-05-01 05:00",9.146,"Approved","OW045"
"2023-05-01 06:00",9.148,"Approved","OW045"
"2023-05-01 07:00",9.143,"Approved","OW045"
"2023-05-01 08:00",9.145,"Approved","OW045"
"2023-05-01 09:00",9.145,"Approved","OW045"
"2023-05-01 10:00",9.145,"Approved","OW045"
"2023-05-01 11:00",9.14,"Approved","OW045"
"2023-05-01 12:00",9.144,"Approved","OW045"
"2023-05-01 13:00",9.144,"Approved","OW045"
"2023-05-01 14:00",9.144,"Approved","OW045"
"2023-05-01 15:00",9.142,"Approved","OW045"
"2023-05-01 16:00",9.142,"Approved","OW045"
"2023-05-01 17:00",9.142,"Approved","OW045"
"2023-05-01 18:00",9.14,"Approved","OW045"
"2023-05-01 19:00",9.139,"Approved","OW045"
"2023-05-01 20:00",9.141,"Approved","OW045"
"2023-05-01 21:00",9.14,"Approved","OW045"
"2023-05-01 22:00",9.142,"Approved","OW045"
"2023-05-01 23:00",9.141,"Approved","OW045"
"2023-05-02 00:00",9.142,"Approved","OW045"
"2023-05-02 01:00",9.141,"Approved","OW045"
"2023-05-02 02:00",9.138,"Approved","OW045"
"2023-05-02 03:00",9.141,"Approved","OW045"
"2023-05-02 04:00",9.14,"Approved","OW045"
"2023-05-02 05:00",9.14,"Approved","OW045"
"2023-05-02 06:00",9.14,"Approved","OW045"
"2023-05-02 07:00",9.139,"Approved","OW045"
"2023-05-02 08:00",9.136,"Approved","OW045"
"2023-05-02 09:00",9.136,"Approved","OW045"
"2023-05-02 10:00",9.134,"Approved","OW045"
"2023-05-02 11:00",9.132,"Approved","OW045"
"2023-05-02 12:00",9.134,"Approved","OW045"
"2023-05-02 13:00",9.133,"Approved","OW045"
"2023-05-02 14:00",9.132,"Approved","OW045"
"2023-05-02 15:00",9.131,"Approved","OW045"
"2023-05-02 16:00",9.13,"Approved","OW045"
"2023-05-02 17:00",9.132,"Approved","OW045"
"2023-05-02 18:00",9.129,"Approved","OW045"
"2023-05-02 19:00",9.132,"Approved","OW045"
"2023-05-02 20:00",9.132,"Approved","OW045"
"2023-05-02 21:00",9.131,"Approved","OW045"
"2023-05-02 22:00",9.132,"Approved","OW045"
"2023-05-02 23:00",9.132,"Approved","OW045"
"2023-05-03 00:00",9.132,"Approved","OW045"
"2023-05-03 01:00",9.132,"Approved","OW045"
"2023-05-03 02:00",9.129,"Approved","OW045"
"2023-05-03 03:00",9.13,"Approved","OW045"
"2023-05-03 04:00",9.129,"Approved","OW045"
"2023-05-03 05:00",9.13,"Approved","OW045"
"2023-05-03 06:00",9.129,"Approved","OW045"
"2023-05-03 07:00",9.128,"Approved","OW045"
"2023-05-03 08:00",9.127,"Approved","OW045"
"2023-05-03 09:00",9.128,"Approved","OW045"
"2023-05-03 10:00",9.128,"Approved","OW045"
"2023-05-03 11:00",9.125,"Approved","OW045"
"2023-05-03 12:00",9.122,"Approved","OW045"
"2023-05-03 13:00",9.123,"Approved","OW045"
"2023-05-03 14:00",9.121,"Approved","OW045"
"2023-05-03 15:00",9.124,"Approved","OW045"
"2023-05-03 16:00",9.12,"Approved","OW045"
"2023-05-03 17:00",9.12,"Approved","OW045"
"2023-05-03 18:00",9.121,"Approved","OW045"
"2023-05-03 19:00",9.124,"Approved","OW045"
"2023-05-03 20:00",9.124,"Approved","OW045"
"2023-05-03 21:00",9.123,"Approved","OW045"
"2023-05-03 22:00",9.121,"Approved","OW045"
"2023-05-03 23:00",9.122,"Approved","OW045"
"2023-05-04 00:00",9.121,"Approved","OW045"
"2023-05-04 01:00",9.119,"Approved","OW045"
"2023-05-04 02:00",9.118,"Approved","OW045"
"2023-05-04 03:00",9.119,"Approved","OW045"
"2023-05-04 04:00",9.119,"Approved","OW045"
"2023-05-04 05:00",9.118,"Approved","OW045"
"2023-05-04 06:00",9.117,"Approved","OW045"
"2023-05-04 07:00",9.117,"Approved","OW045"
"2023-05-04 08:00",9.114,"Approved","OW045"
"2023-05-04 09:00",9.116,"Approved","OW045"
"2023-05-04 10:00",9.112,"Approved","OW045"
"2023-05-04 11:00",9.111,"Approved","OW045"
"2023-05-04 12:00",9.112,"Approved","OW045"
"2023-05-04 13:00",9.111,"Approved","OW045"
"2023-05-04 14:00",9.108,"Approved","OW045"
"2023-05-04 15:00",9.107,"Approved","OW045"
"2023-05-04 16:00",9.106,"Approved","OW045"
"2023-05-04 17:00",9.106,"Approved","OW045"
"2023-05-04 18:00",9.108,"Approved","OW045"
"2023-05-04 19:00",9.106,"Approved","OW045"
"2023-05-04 20:00",9.107,"Approved","OW045"
"2023-05-04 21:00",9.105,"Approved","OW045"
"2023-05-04 22:00",9.105,"Approved","OW045"
"2023-05-04 23:00",9.104,"Approved","OW045"
"2023-05-05 00:00",9.104,"Approved","OW045"
"2023-05-05 01:00",9.102,"Approved","OW045"
"2023-05-05 02:00",9.103,"Approved","OW045"
"2023-05-05 03:00",9.103,"Approved","OW045"
"2023-05-05 04:00",9.103,"Approved","OW045"
"2023-05-05 05:00",9.101,"Approved","OW045"
"2023-05-05 06:00",9.1,"Approved","OW045"
"2023-05-05 07:00",9.098,"Approved","OW045"
"2023-05-05 08:00",9.099,"Approved","OW045"
"2023-05-05 09:00",9.098,"Approved","OW045"
"2023-05-05 10:00",9.097,"Approved","OW045"
"2023-05-05 11:00",9.097,"Approved","OW045"
"2023-05-05 12:00",9.095,"Approved","OW045"
"2023-05-05 13:00",9.097,"Approved","OW045"
"2023-05-05 14:00",9.096,"Approved","OW045"
"2023-05-05 15:00",9.094,"Approved","OW045"
"2023-05-05 16:00",9.089,"Approved","OW045"
"2023-05-05 17:00",9.091,"Approved","OW045"
"2023-05-05 18:00",9.09,"Approved","OW045"
"2023-05-05 19:00",9.086,"Approved","OW045"
"2023-05-05 20:00",9.089,"Approved","OW045"
"2023-05-05 21:00",9.088,"Approved","OW045"
"2023-05-05 22:00",9.083,"Approved","OW045"
"2023-05-05 23:00",9.083,"Approved","OW045"
"2023-05-06 00:00",9.08,"Approved","OW045"
"2023-05-06 01:00",9.078,"Approved","OW045"
"2023-05-06 02:00",9.08,"Approved","OW045"
"2023-05-06 03:00",9.076,"Approved","OW045"
"2023-05-06 04:00",9.075,"Approved","OW045"
"2023-05-06 05:00",9.072,"Approved","OW045"
"2023-05-06 06:00",9.07,"Approved","OW045"
"2023-05-06 07:00",9.072,"Approved","OW045"
"2023-05-06 08:00",9.068,"Approved","OW045"
"2023-05-06 09:00",9.068,"Approved","OW045"
"2023-05-06 10:00",9.065,"Approved","OW045"
"2023-05-06 11:00",9.066,"Approved","OW045"
"2023-05-06 12:00",9.062,"Approved","OW045"
"2023-05-06 13:00",9.059,"Approved","OW045"
"2023-05-06 14:00",9.055,"Approved","OW045"
"2023-05-06 15:00",9.057,"Approved","OW045"
"2023-05-06 16:00",9.055,"Approved","OW045"
"2023-05-06 17:00",9.053,"Approved","OW045"
"2023-05-06 18:00",9.053,"Approved","OW045"
"2023-05-06 19:00",9.051,"Approved","OW045"
"2023-05-06 20:00",9.05,"Approved","OW045"
"2023-05-06 21:00",9.046,"Approved","OW045"
"2023-05-06 22:00",9.046,"Approved","OW045"
"2023-05-06 23:00",9.043,"Approved","OW045"
"2023-05-07 00:00",9.04,"Approved","OW045"
"2023-05-07 01:00",9.037,"Approved","OW045"
"2023-05-07 02:00",9.037,"Approved","OW045"
"2023-05-07 03:00",9.032,"Approved","OW045"
"2023-05-07 04:00",9.031,"Approved","OW045"
"2023-05-07 05:00",9.029,"Approved","OW045"
"2023-05-07 06:00",9.027,"Approved","OW045"
"2023-05-07 07:00",9.024,"Approved","OW045"
"2023-05-07 08:00",9.022,"Approved","OW045"
"2023-05-07 09:00",9.017,"Approved","OW045"
"2023-05-07 10:00",9.015,"Approved","OW045"
"2023-05-07 11:00",9.014,"Approved","OW045"
"2023-05-07 12:00",9.011,"Approved","OW045"
"2023-05-07 13:00",9.007,"Approved","OW045"
"2023-05-07 14:00",9.004,"Approved","OW045"
"2023-05-07 15:00",9,"Approved","OW045"
"2023-05-07 16:00",8.998,"Approved","OW045"
"2023-05-07 17:00",8.993,"Approved","OW045"
"2023-05-07 18:00",8.991,"Approved","OW045"
"2023-05-07 19:00",8.991,"Approved","OW045"
"2023-05-07 20:00",8.989,"Approved","OW045"
"2023-05-07 21:00",8.984,"Approved","OW045"
"2023-05-07 22:00",8.979,"Approved","OW045"
"2023-05-07 23:00",8.979,"Approved","OW045"
"2023-05-08 00:00",8.975,"Approved","OW045"
"2023-05-08 01:00",8.97,"Approved","OW045"
"2023-05-08 02:00",8.967,"Approved","OW045"
"2023-05-08 03:00",8.965,"Approved","OW045"
"2023-05-08 04:00",8.961,"Approved","OW045"
"2023-05-08 05:00",8.958,"Approved","OW045"
"2023-05-08 06:00",8.956,"Approved","OW045"
"2023-05-08 07:00",8.953,"Approved","OW045"
"2023-05-08 08:00",8.949,"Approved","OW045"
"2023-05-08 09:00",8.945,"Approved","OW045"
"2023-05-08 10:00",8.939,"Approved","OW045"
"2023-05-08 11:00",8.937,"Approved","OW045"
"2023-05-08 12:00",8.933,"Approved","OW045"
"2023-05-08 13:00",8.93,"Approved","OW045"
"2023-05-08 14:00",8.926,"Approved","OW045"
"2023-05-08 15:00",8.926,"Approved","OW045"
"2023-05-08 16:00",8.922,"Approved","OW045"
"2023-05-08 17:00",8.918,"Approved","OW045"
"2023-05-08 18:00",8.913,"Approved","OW045"
"2023-05-08 19:00",8.908,"Approved","OW045"
"2023-05-08 20:00",8.908,"Approved","OW045"
"2023-05-08 21:00",8.905,"Approved","OW045"
"2023-05-08 22:00",8.898,"Approved","OW045"
"2023-05-08 23:00",8.897,"Approved","OW045"
"2023-05-09 00:00",8.891,"Approved","OW045"
"2023-05-09 01:00",8.889,"Approved","OW045"
"2023-05-09 02:00",8.886,"Approved","OW045"
"2023-05-09 03:00",8.883,"Approved","OW045"
"2023-05-09 04:00",8.878,"Approved","OW045"
"2023-05-09 05:00",8.873,"Approved","OW045"
"2023-05-09 06:00",8.87,"Approved","OW045"
"2023-05-09 07:00",8.866,"Approved","OW045"
"2023-05-09 08:00",8.864,"Approved","OW045"
"2023-05-09 09:00",8.859,"Approved","OW045"
"2023-05-09 10:00",8.853,"Approved","OW045"
"2023-05-09 11:00",8.847,"Approved","OW045"
"2023-05-09 12:00",8.845,"Approved","OW045"
"2023-05-09 13:00",8.842,"Approved","OW045"
"2023-05-09 14:00",8.837,"Approved","OW045"
"2023-05-09 15:00",8.832,"Approved","OW045"
"2023-05-09 16:00",8.83,"Approved","OW045"
"2023-05-09 17:00",8.826,"Approved","OW045"
"2023-05-09 18:00",8.822,"Approved","OW045"
"2023-05-09 19:00",8.818,"Approved","OW045"
"2023-05-09 20:00",8.817,"Approved","OW045"
"2023-05-09 21:00",8.813,"Approved","OW045"
"2023-05-09 22:00",8.808,"Approved","OW045"
"2023-05-09 23:00",8.803,"Approved","OW045"
"2023-05-10 00:00",8.8,"Approved","OW045"
"2023-05-10 01:00",8.796,"Approved","OW045"
"2023-05-10 02:00",8.789,"Approved","OW045"
"2023-05-10 03:00",8.785,"Approved","OW045"
"2023-05-10 04:00",8.782,"Approved","OW045"
"2023-05-10 05:00",8.781,"Approved","OW045"
"2023-05-10 06:00",8.778,"Approved","OW045"
"2023-05-10 07:00",8.771,"Approved","OW045"
"2023-05-10 08:00",8.768,"Approved","OW045"
"2023-05-10 09:00",8.762,"Approved","OW045"
"2023-05-10 10:00",8.758,"Approved","OW045"
"2023-05-10 11:00",8.754,"Approved","OW045"
"2023-05-10 12:00",8.75,"Approved","OW045"
"2023-05-10 13:00",8.745,"Approved","OW045"
"2023-05-10 14:00",8.742,"Approved","OW045"
"2023-05-10 15:00",8.736,"Approved","OW045"
"2023-05-10 16:00",8.731,"Approved","OW045"
"2023-05-10 17:00",8.729,"Approved","OW045"
"2023-05-10 18:00",8.725,"Approved","OW045"
"2023-05-10 19:00",8.723,"Approved","OW045"
"2023-05-10 20:00",8.719,"Approved","OW045"
"2023-05-10 21:00",8.717,"Approved","OW045"
"2023-05-10 22:00",8.712,"Approved","OW045"
"2023-05-10 23:00",8.71,"Approved","OW045"
"2023-05-11 00:00",8.705,"Approved","OW045"
"2023-05-11 01:00",8.699,"Approved","OW045"
"2023-05-11 02:00",8.697,"Approved","OW045"
"2023-05-11 03:00",8.693,"Approved","OW045"
"2023-05-11 04:00",8.688,"Approved","OW045"
"2023-05-11 05:00",8.684,"Approved","OW045"
"2023-05-11 06:00",8.681,"Approved","OW045"
"2023-05-11 07:00",8.674,"Approved","OW045"
"2023-05-11 08:00",8.669,"Approved","OW045"
"2023-05-11 09:00",8.666,"Approved","OW045"
"2023-05-11 10:00",8.661,"Approved","OW045"
"2023-05-11 11:00",8.657,"Approved","OW045"
"2023-05-11 12:00",8.654,"Approved","OW045"
"2023-05-11 13:00",8.65,"Approved","OW045"
"2023-05-11 14:00",8.646,"Approved","OW045"
"2023-05-11 15:00",8.644,"Approved","OW045"
"2023-05-11 16:00",8.637,"Approved","OW045"
"2023-05-11 17:00",8.635,"Approved","OW045"
"2023-05-11 18:00",8.629,"Approved","OW045"
"2023-05-11 19:00",8.629,"Approved","OW045"
"2023-05-11 20:00",8.625,"Approved","OW045"
"2023-05-11 21:00",8.623,"Approved","OW045"
"2023-05-11 22:00",8.624,"Approved","OW045"
"2023-05-11 23:00",8.615,"Approved","OW045"
"2023-05-12 00:00",8.614,"Approved","OW045"
"2023-05-12 01:00",8.609,"Approved","OW045"
"2023-05-12 02:00",8.607,"Approved","OW045"
"2023-05-12 03:00",8.606,"Approved","OW045"
"2023-05-12 04:00",8.599,"Approved","OW045"
"2023-05-12 05:00",8.598,"Approved","OW045"
"2023-05-12 06:00",8.596,"Approved","OW045"
"2023-05-12 07:00",8.592,"Approved","OW045"
"2023-05-12 08:00",8.587,"Approved","OW045"
"2023-05-12 09:00",8.582,"Approved","OW045"
"2023-05-12 10:00",8.577,"Approved","OW045"
"2023-05-12 11:00",8.574,"Approved","OW045"
"2023-05-12 12:00",8.571,"Approved","OW045"
"2023-05-12 13:00",8.568,"Approved","OW045"
"2023-05-12 14:00",8.563,"Approved","OW045"
"2023-05-12 15:00",8.56,"Approved","OW045"
"2023-05-12 16:00",8.554,"Approved","OW045"
"2023-05-12 17:00",8.552,"Approved","OW045"
"2023-05-12 18:00",8.549,"Approved","OW045"
"2023-05-12 19:00",8.549,"Approved","OW045"
"2023-05-12 20:00",8.544,"Approved","OW045"
"2023-05-12 21:00",8.543,"Approved","OW045"
"2023-05-12 22:00",8.542,"Approved","OW045"
"2023-05-12 23:00",8.538,"Approved","OW045"
"2023-05-13 00:00",8.534,"Approved","OW045"
"2023-05-13 01:00",8.534,"Approved","OW045"
"2023-05-13 02:00",8.528,"Approved","OW045"
"2023-05-13 03:00",8.526,"Approved","OW045"
"2023-05-13 04:00",8.524,"Approved","OW045"